{"data":{"norad_id":82820,"intl_designator":"","name":"UNKNOWN","alt_names":[],"object_type":"UNKNOWN","status":"UNKNOWN","operator":null,"country":null,"launch_date":null,"launch_site_code":null,"launch_vehicle":null,"mission":null,"orbit_class":"UNKNOWN","rcs_meters":null,"size_class":null,"mass_kg":null,"dimensions":null,"purposes":[],"wikipedia_slug":null,"has_3d_model":false,"image_url":null,"decayed_at":null,"tle_current":{"epoch":"2026-09-17T07:48:51.012288Z","epoch_age_seconds":292622,"freshness":"STALE","line1":"1 82820U          26260.32559042  .00001658  00000+0  57524-3 0  9991","line2":"2 82820  99.7919 103.6657 0047380 301.6138  58.0425 14.36602012665611","mean_motion":14.36602012,"eccentricity":0.004738,"inclination_deg":99.7919,"raan_deg":103.6657,"arg_perigee_deg":301.6138,"mean_anomaly_deg":58.0425,"bstar":0.00057524,"rev_number":66561,"period_min":100.23652953091,"perigee_km":735.88084741587,"apogee_km":803.61420116806,"semimajor_km":7147.884524292,"source":"CELESTRAK","updated_at":"2026-09-20T09:00:32.439942Z"}}}